Weather History for CYZS - October, 2012

Change the Weather History Date:

Tuesday, October 2, 2012

  Actual Average Record
Temperature  
Mean Temperature 29 °F -  
Max Temperature 32 °F 24 °F 39 °F (1998)
Min Temperature 26 °F 11 °F 15 °F (2014)
Degree Days  
Heating Degree Days 36    
Moisture  
Dew Point 26 °F    
Average Humidity 80    
Maximum Humidity 93    
Minimum Humidity 69    
Precipitation  
Precipitation 0.00 in 0.05 in - ()
Sea Level Pressure  
Sea Level Pressure 29.71 in    
Wind  
Wind Speed 16 mph ()    
Max Wind Speed 23 mph    
Max Gust Speed 29 mph    
Visibility 13.8 miles    
Events Snow    
Averages and records for this station are not official NWS values.
T = Trace of Precipitation, MM = Missing Value Source: Averaged Metar Reports

Daily Weather History Graph

Daily Weather History Graph

Search for Another Location

Airport or City:

Trip Planner

Search our weather history database for the weather conditions in past years. The results will help you decide how hot, cold, wet, or windy it might be!

Date:

Astronomy

Oct. 02, 2012 Rise Set
Actual Time 7:46 AM EDT 6:56 PM EDT
Civil Twilight 6:59 AM EDT 7:44 PM EDT
Nautical Twilight 6:02 AM EDT 8:40 PM EDT
Astronomical Twilight 5:02 AM EDT 9:40 PM EDT
Moon 6:50 PM EDT (10/2) 11:27 AM EDT (10/2)
Length of Visible Light 12h 45m
Length of Day
11h 10m
Waning Gibbous, 94% of the Moon is Illuminated
Oct 2
Waning Gibbous
Oct 8
Last Quarter
Oct 15
New
Oct 21
First Quarter
Oct 29
Full

Hourly Weather History & Observations

Time (EDT) Temp. Windchill Dew Point Humidity Pressure Visibility Wind Dir Wind Speed Gust Speed Precip Events Conditions
12:00 AM 33.8 °F 23.2 °F 30.2 °F 87% 29.52 in 6.0 mi NNW 17.3 mph 23.0 mph N/A Snow Light Snow
1:00 AM 33.8 °F 23.2 °F 30.2 °F 87% 29.53 in 6.0 mi NNW 17.3 mph 23.0 mph N/A Snow Light Snow
2:00 AM 33 °F - 30 °F 83%  in 6 mi NW 23.0 mph - - Snow Light Snow
2:00 AM 32.0 °F 19.2 °F 30.2 °F 93% 29.53 in 6.0 mi NW 23.0 mph 28.8 mph N/A Snow Light Snow
2:29 AM - - - N/A% - 15.0 mi NW 15.0 mph - N/A   Mostly Cloudy
3:00 AM 32.0 °F 20.8 °F 28.4 °F 87% 29.54 in 15.0 mi NW 17.3 mph - N/A   Mostly Cloudy
5:00 AM 32.0 °F 20.8 °F 28.4 °F 87% 29.56 in 15.0 mi WNW 17.3 mph - N/A   Scattered Clouds
6:00 AM 32.0 °F 20.8 °F 28.4 °F 87% 29.57 in 15.0 mi NW 17.3 mph - N/A   Mostly Cloudy
7:00 AM 32.0 °F 23.0 °F 28.4 °F 87% 29.59 in 15.0 mi WNW 11.5 mph - N/A   Overcast
8:00 AM 33 °F - 28 °F 73% 29.61 in 15 mi NNW 15.0 mph - -   Partly Cloudy
8:00 AM 32.0 °F 21.6 °F 28.4 °F 87% 29.61 in 15.0 mi NNW 15.0 mph - N/A   Overcast
8:12 AM - - - N/A% - 15.0 mi NNW 19.6 mph 26.5 mph N/A   Unknown
9:00 AM 32.0 °F 20.1 °F 26.6 °F 80% 29.63 in 15.0 mi NNW 19.6 mph - N/A Snow Light Snow
10:00 AM 32.0 °F 20.8 °F 26.6 °F 80% 29.66 in 15.0 mi NNW 17.3 mph 23.0 mph N/A Snow Light Snow
10:44 AM - - - N/A% - 15.0 mi NNW 21.9 mph 28.8 mph N/A   Mostly Cloudy
11:00 AM 30.2 °F 18.1 °F 24.8 °F 80% 29.68 in 15.0 mi NW 18.4 mph 25.3 mph N/A   Mostly Cloudy
12:00 PM 30.2 °F 18.5 °F 24.8 °F 80% 29.70 in 15.0 mi NW 17.3 mph 23.0 mph N/A   Mostly Cloudy
12:49 PM - - - N/A% - 15.0 mi NNW 18.4 mph 25.3 mph N/A   Scattered Clouds
1:00 PM 32.0 °F 20.5 °F 23.0 °F 69% 29.72 in 15.0 mi NNW 18.4 mph 25.3 mph N/A   Mostly Cloudy
1:05 PM - - - N/A% - 15.0 mi NW 17.3 mph 23.0 mph N/A   Mostly Cloudy
2:00 PM 32.0 °F 19.8 °F 23.0 °F 69% 29.74 in 15.0 mi NNW 20.7 mph 27.6 mph N/A   Overcast
3:00 PM 32.0 °F 20.5 °F 23.0 °F 69% 29.76 in 15.0 mi NNW 18.4 mph 25.3 mph N/A   Overcast
4:00 PM 32.0 °F 20.8 °F 23.0 °F 69% 29.77 in 15.0 mi NW 17.3 mph 23.0 mph N/A   Overcast
5:00 PM 32.0 °F 20.5 °F 24.8 °F 75% 29.79 in 15.0 mi WNW 18.4 mph 27.6 mph N/A   Mostly Cloudy
6:00 PM 32.0 °F 20.5 °F 24.8 °F 75% 29.81 in 15.0 mi NW 18.4 mph 26.5 mph N/A   Mostly Cloudy
7:00 PM 30.2 °F 18.1 °F 24.8 °F 80% 29.83 in 15.0 mi NW 18.4 mph 25.3 mph N/A   Mostly Cloudy
8:00 PM 31 °F - 25 °F 70% 29.87 in 15 mi NW 17.3 mph - -   Mostly Cloudy
8:00 PM 30.2 °F 18.5 °F 24.8 °F 80% 29.87 in 15.0 mi NW 17.3 mph 23.0 mph N/A   Mostly Cloudy
9:00 PM 28.4 °F 16.2 °F 23.0 °F 80% 29.90 in 15.0 mi NW 17.3 mph - N/A   Mostly Cloudy
10:00 PM 26.6 °F 15.7 °F 23.0 °F 86% 29.92 in 15.0 mi NW 12.7 mph - N/A   Mostly Cloudy
11:00 PM 26.6 °F 19.1 °F 23.0 °F 86% 29.93 in 15.0 mi WNW 6.9 mph - N/A   Mostly Cloudy